Regional Weather Roundup
Issued by NWS Wakefield, VA

Home | Current Version | Previous Version | Graphics & Text | Print | Product List | Glossary On
Versions: 1 2 3 4 5 6 7 8 9 10 11 12 13 14 15 16 17 18 19 20 21 22 23 24 25 26 27 28 29 30 31 32 33 34 35 36 37 38 39 40 41 42 43 44 45 46 47 48 49 50
000
ASUS41 KAKQ 230110
RWRAKQ

REGIONAL WEATHER ROUNDUP
NATIONAL WEATHER SERVICE WAKEFIELD VA
900 PM EDT FRI AUG 22 2014

Note: "fair" indicates few or no clouds below 12,000 feet with no
significant weather and/or obstructions to visibility. * = Denotes
station may not report precipitation (e.g., rain,snow,etc.),
thunder or fog.

VAZ042-051-052>054-056-230200-
NORTHERN VIRGINIA

CITY           SKY/WX    TMP DP  RH WIND       PRES   REMARKS
WASH NATIONAL  MOCLDY    79  70  73 E7        29.99R
DULLES         MOCLDY    73  69  87 SE5       29.98R
FORT BELVOIR   MOCLDY    75  70  84 VRB2      29.98R
QUANTICO       MOCLDY    77  71  82 SE6       29.98R
FREDERICKSBRG* PTCLDY    74  74  98 CALM      29.96S
STAFFORD*      MOCLDY    71  71 100 CALM      30.01R FOG
WARRENTON      CLEAR     72  72 100 CALM      29.98R
CULPEPER*      PTCLDY   N/A N/A N/A CALM      29.98R HAZE
MANASSAS*      MOCLDY    75  73  94 E5        29.98R
LEESBURG*      PTCLDY    75  72  88 E3        29.99R
WINCHESTER     PTCLDY    73  70  88 CALM      29.99R
$$

VAZ048-049-060>072-079>083-230200-
CENTRAL AND SOUTH CENTRAL VIRGINIA...AND NORTH CENTRAL NORTH CAROLINA

CITY           SKY/WX    TMP DP  RH WIND       PRES   REMARKS
RICHMOND       CLOUDY    77  70  79 E7        29.96R
CHESTERFIELD*  CLOUDY    79  63  57 E6        29.98R
HANOVER        PTCLDY    74  71  91 CALM      29.99R
TAPPAHANNOCK*  MOCLDY    75  71  86 CALM      29.98R
CHARLOTTSVILLE PTCLDY    74  70  87 CALM      29.98R
ORANGE*        PTCLDY    72  70  94 CALM      29.99S
LOUISA*        PTCLDY    72  70  94 CALM      29.97R FOG
FARMVILLE*     MOCLDY    77  75  94 CALM      29.95S
SOUTH HILL*    MOCLDY    75  75 100 CALM      30.02R
ROANOKE RAPIDS MOCLDY    73  72  94 CALM      29.95S
RALEIGH        MOCLDY    77  73  87 CALM      29.96R
$$

VAZ088>098-230200-
SOUTHEAST VIRGINIA

CITY           SKY/WX    TMP DP  RH WIND       PRES   REMARKS
NORFOLK        PTCLDY    78  72  81 NE10      29.95R
VIRGINIA BEACH MOCLDY    77  72  84 N8        29.94S
NORFOLK NAVAL  MOCLDY    79  71  76 NE8       29.97R
WEST POINT*    CLEAR     75  71  88 CALM      29.97R
NEWPORT NEWS   MOCLDY    79  72  79 N3        29.96R
LANGLEY AFB    CLEAR     77  75  93 NE5       29.95R
FORT EUSTIS    PTCLDY    76  71  85 NE3       29.95R
WILLIAMSBURG*  PTCLDY    75  73  94 CALM      29.97S
FRANKLIN*      PTCLDY    75  72  88 CALM      29.96R
WAKEFIELD      PTCLDY    75  71  87 CALM      29.96S
$$

VAZ020-022-025-037-045-230200-
WESTERN AND SOUTHWEST VIRGINIA

CITY           SKY/WX    TMP DP  RH WIND       PRES   REMARKS
STAUNTON*      MOCLDY    74  70  86 CALM      30.01S
HOT SPRINGS VA CLOUDY    66  66 100 W9        30.14S FOG
LYNCHBURG      MOCLDY    77  73  87 CALM      29.99S
DANVILLE       CLOUDY    76  74  93 CALM      29.96S
MARTINSVILLE   CLOUDY    77  76  99 CALM      30.01R FOG
ROANOKE        CLOUDY    78  72  81 CALM      30.00F
BLACKSBURG     CLOUDY    73  73 100 CALM      30.08R FOG
DUBLIN*        CLOUDY    71  69  94 SW3       30.08R
MARION*        CLOUDY    69  67  93 CALM      30.14R
HILLSVILLE*    MOCLDY    68  67  96 CALM      30.11R
RICHLANDS*     LGT RAIN  71  68  91 CALM      30.12R
WISE*          CLOUDY    70  70 100 SW5       30.14R
ABINGDON*      CLOUDY    74  71  89 CALM      30.09R
$$

MDZ021>025-VAZ099-100-230200-
SOUTHERN MARYLAND AND THE DELMARVA PENINSULA

CITY           SKY/WX    TMP DP  RH WIND       PRES   REMARKS
PATUXENT RIVER CLOUDY    74  69  85 E8        29.97R
BAY BRIDGE APT   N/A     73  66  78 E8        29.99R
LEONARDTOWN    CLOUDY    72  68  88 CALM      29.99S
DOVER          CLOUDY    73  65  78 NE6       29.99R
GEORGETOWN     PTCLDY    72  67  84 E13       30.00S
EASTON         NOT AVBL
CAMBRIDGE      PTCLDY    72  70  94 NE5       29.98R
SALISBURY      CLEAR     73  68  84 NE6       29.98S
OCEAN CITY     CLOUDY    74  68  81 E9        29.98S
WALLOPS ISLAND MOCLDY    74  70  87 E16       29.97R
ACCOMACK*      MOCLDY    72  68  88 NE6       29.96S
$$

NCZ012>017-030>032-230200-
EASTERN NORTH CAROLINA

CITY           SKY/WX    TMP DP  RH WIND       PRES   REMARKS
ELIZABETH CITY MOCLDY    78  71  79 N6        29.95R
AHOSKIE*       MOCLDY    75  73  93 N3        29.96R
EDENTON*       MOCLDY    78  75  91 E3        29.94S
CURRITUCK*     PTCLDY    78  67  69 CALM      29.96R
KILL DEVIL HLS MOCLDY    78  73  82 N5        29.94R
MANTEO         PTCLDY    79  72  78 NE6       29.95S
CAPE HATTERAS  MOCLDY    79  75  87 E6        29.93S
GOLDSBORO      MOCLDY    78  75  90 CALM      29.93S
WASHINGTON     MOCLDY    78  73  83 CALM      29.94S
GREENVILLE     MOCLDY    79  73  83 SW3       29.96S
NEW BERN       PTCLDY    84  73  69 N5        29.95R
WILMINGTON     TSTM      72  69  90 S6        29.99F FOG
$$

VAZ048-230200-
ELSEWHERE

CITY           SKY/WX    TMP DP  RH WIND       PRES   REMARKS
HARRISBURG PA  LGT RAIN  75  65  70 SE13      29.99R
BALTIMORE      MOCLDY    74  68  81 SE6       29.99R
ANNAPOLIS      CLOUDY    75  69  81 E9        29.99R
ANDREWS AFB    CLOUDY    73  70  90 E8        29.99R
WILMINGTON DE  CLOUDY    74  64  71 E9        30.03R
PHILADELPHIA   MOCLDY    72  63  73 E10       30.03R
WILDWOOD NJ*   MOCLDY    72  63  73 NE7       30.02R
ATLANTIC CITY  CLEAR     66  62  87 NE3       30.02R
HENDERSON NC   MOCLDY    75  73  91 NE3       29.97S
GREENSBORO     CLOUDY    82  70  66 CALM      29.97S
ROCKY MOUNT    MOCLDY    77  73  87 CALM      29.95S
FAYETTEVILLE   PTCLDY    80  69  69 SE6       29.95R
CHARLOTTE      PTCLDY    84  69  60 S3        29.98R
$$

VAZ100-230200-
MARINE

STATION/POSITION TIME  TEMP    WIND        PRES    WAVE   SWELL
                       AIR SEA DIR/SP/G            HT/PER HT/PER
                 (UTC) (F)     (DEG/KT/KT) (MB)    (FT/S) (FT/S)
44066 TX TWR #4  0100   70 73   50/ 16/ 19 1015.6R   4/ 8   2/ 8
CAPE MAY NJ      0100   72 81   60/  7/ 10 1015.3F
LEWES DE         0100   73 76   90/ 11/ 13 1015.1F
15NM E FENWICK I 0100   74 76              1014.7F   3/ 7
OCEAN-CITY-INLET 0100   74 76   70/  8/ 12 1014.9R
WACHAPREAGUE VA  0100   75 82   50/ 10/ 15 1014.5R
THOMAS POINT MD  0100   75 79  100/ 15/ 18 1015.8R
GOOSES REEF MD   0100   75     130/ 12/ 14 1015.3R
COVE POINT MD    0100   74     140/ 12/ 14 1014.9R
SOLOMONS ISLAND  0100      80                N/A
BISHOPS HEAD MD  0100   74 79   70/ 10/ 13 1014.2R
PINEY POINT MD   0100           90/  8/  9   N/A
POTOMAC MD       0100   75     100/ 12/ 14 1013.9S
CAMBRIDGE MD     0100   74 79   80/ 11/ 14 1014.8R
LEWISETTA VA     0100   76 80  110/ 11/ 13 1014.3R
RAPPAHANNOCK LGT 0100           60/ 12/ 13 1015.1R
STINGRAY PT      0100   76      80/ 12/ 12 1015.1S
YORK RVR RNG VA  0100   78      70/ 12/ 13 1013.9R
YORKTOWN VA      0100   78 82   30/  7/  7 1014.3R
JAMESTOWN VA     0100   75      60/  2/  2   N/A
DOMINION TERM VA 0100   79      40/  5/  7 1014.5R
KIPTOPEKE VA     0100      83   80/  5/  7   N/A
CHES BAY BRIDGE  0100   77 78   40/ 12/ 13 1013.7R
CAPE HENRY VA    0100   77      40/ 12/ 13 1013.0R
CHESAPEAKE LGHT  0000   77      60/ 10/ 10 1014.6R
WILLOUBY STN VA  0100   78      30/ 10/ 10 1013.3R
S CRANEY ISL VA  0100           10/  8/ 11 1014.1R
CAPE HENRY BUOY  0100      78                N/A     2/ 7
1ST LANDING BUOY 0100   78      40/ 12/ 14 1013.8R
CAPE CHARLES BUO 0100      78                N/A     2/ 7   2/ 7
OFFSHORE WE BUOY 0100      78                N/A     2/ 8   2/ 8
64NM E OF VA BCH 0100   77 78   30/  8/ 10 1013.2S   2/ 7   2/ 7
DUCK PIER NC     0100   79 81   10/ 11/ 11 1013.2R
44056 DUCK FRF   0100                        N/A     2/ 7
OREGON INLET NC  0100   79 85   20/  8/ 12 1013.8S
HATTERAS NC      0100   81 85   60/  9/ 12 1014.1R
DIAMOND SHLS NC  0100   80      10/  6/ 10 1013.5R   2/ 8   2/ 8
CAPE LOOKOUT NC  0000   84     240/  8/ 10 1013.3F
$$



USA.gov is the U.S. government's official web portal to all federal, state and local government web resources and services.